STARLINK-32002, 60200

Orbit data source: Space-Track

STARLINK-32002, 60200 is a payload satellite owned by SpaceX/Seattle (US) in LEO that was launched on Wed, 03 Jul 2024 UTC via an FALCON 9 launch vehicle from the Air Force Eastern Test Range (AFETR). Payload-class satellites include a variety of spacecraft equipped with specific instruments for various scientific and technological missions. These include communications satellites like Starlink; space stations such as the ISS; scientific satellites like the Hubble; Earth observation satellites from companies like Planet Labs, Umbra, and HawkEye 360; GPS; miniature CubeSats for education and research; and military/defense satellites.

Loading next visibility...
Identifier
60200, 2024-124T
Orbit
LEO
Last TLE update
15 hours ago
Origin
Manufacturer
SpaceX/Seattle
Mission
Operational Commercial Communications
Bus & Motor
STARLINK V2M, Unknown motor
Mass
730 kg wet, ~700 kg dry
Launch date (UTC)
2024-07-03 (10 months ago)
Launch vehicle
FALCON 9
Launch site
Air Force Eastern Test Range (AFETR)
Object type
Payload
Rocket body
Debris
Shape & HBR
Box + 2 Pan, 29 m
Radar Cross Section
36.964 m², Large (>1 m²)

Expand to show TLE details & history

TLE from 15 hours ago
0 STARLINK-32002
1 60200U 24124T   25128.79160405  .00000377  00000-0  24864-4 0  9996
2 60200  53.1604 298.7738 0000948  72.8634 287.2470 15.30194793 48750
Epoch: 2025-05-08T18:59Z
Definitive object data (Epoch: 2025-05-08T18:59:54.589Z)
Latitude
-0.00009°
Longitude
146.93925°
Altitude
475.938 km
Speed
7.629 km/s
True Right ascension
19h 55m 05s
True Declination
0° 00' 00"
Sunlit
Object was in daylight at TLE epoch
Visualization TLE readout
Latitude
27.25009°
Longitude
-58.47831°
Altitude
476.292 km
Speed
7.631 km/s
Apparent Right ascension
06h 04m 37s
Apparent Declination
-4° 56' 30"
Sunlit
Object is in daylight
Visualization observer readout
Local Sidereal Time
17:53:40
Azimuth
355.247° N
Elevation
-54.938°
Doppler factor
1
Orbital elements
Apogee altitude
476.137 km
Perigee altitude
474.837 km
Semi-major axis
6,853.624 km
Eccentricity
0.0000948
Inclination
53.1604°
RAAN
298.7738°
Arg. of periapsis
72.8634°
True anomaly
287.23662°
Mean anomaly
287.247°
Eccentric anomaly
287.24181°
Mean motion
3.82528 °/min
BSTAR
0.000024864
Orbital period
94.11 mins
Loading maneuver chart data...
Loading SW <> Apogee altitude chart data...
Loading historical data...
Loading historical data...
Loading historical data...
Loading historical data...
Loading historical data...
Loading historical data...
Loading historical data...

STARLINK-32002 Visibility forecast

Observer location: undefined°, undefined°

Span
Click to sort rows by Start time (UTC) header in descending order
Start Az.
Max El. time (UTC)
Max El. Az.
Max El.
End time (UTC)
End Az.
6 mins2025-05-09 13:59:17.580Z226.862° WSW2025-05-09 14:02:17.580Z156.56° SSE44.89°2025-05-09 14:05:17.580Z51.229° ENE
5 mins2025-05-09 20:35:17.580Z318.392° NNW2025-05-09 20:37:17.580Z24.814° NE43.217°2025-05-09 20:40:17.580Z121.638° SE
|